Year,Month,Day,Hour,Minute,Value (Times are PST for temperature in C)
2016,09,29,00,00,7.20
2016,09,29,00,01,7.10
2016,09,29,00,02,7.10
2016,09,29,00,03,7.10
2016,09,29,00,04,7.20
2016,09,29,00,05,7.20
2016,09,29,00,06,7.20
2016,09,29,00,07,7.20
2016,09,29,00,08,7.20
2016,09,29,00,09,7.20
2016,09,29,00,10,7.20
2016,09,29,00,11,7.20
2016,09,29,00,12,7.20
2016,09,29,00,13,7.10
2016,09,29,00,14,7.10
2016,09,29,00,15,7.10
2016,09,29,00,16,7.10
2016,09,29,00,17,7.10
2016,09,29,00,18,7.10
2016,09,29,00,19,7.10
2016,09,29,00,20,7.10
2016,09,29,00,21,7.10
2016,09,29,00,22,7.10
2016,09,29,00,23,7.10
2016,09,29,00,24,7.10
2016,09,29,00,25,7.10
2016,09,29,00,26,7.00
2016,09,29,00,27,7.00
2016,09,29,00,28,7.00
2016,09,29,00,29,6.90
2016,09,29,00,30,6.90
2016,09,29,00,31,6.90
2016,09,29,00,32,6.90
2016,09,29,00,33,6.90
2016,09,29,00,34,6.90
2016,09,29,00,35,6.90
2016,09,29,00,36,6.90
2016,09,29,00,37,6.90
2016,09,29,00,38,6.90
2016,09,29,00,39,6.90
2016,09,29,00,40,6.90
2016,09,29,00,41,6.90
2016,09,29,00,42,6.90
2016,09,29,00,43,6.90
2016,09,29,00,44,6.90
2016,09,29,00,45,6.80
2016,09,29,00,46,6.80
2016,09,29,00,47,6.80
2016,09,29,00,48,6.80
2016,09,29,00,49,6.70
2016,09,29,00,50,6.70
2016,09,29,00,51,6.70
2016,09,29,00,52,6.70
2016,09,29,00,53,6.70
2016,09,29,00,54,6.70
2016,09,29,00,55,6.70
2016,09,29,00,56,6.60
2016,09,29,00,57,6.60
2016,09,29,00,58,6.60
2016,09,29,00,59,6.60
2016,09,29,01,00,6.50
2016,09,29,01,01,6.50
2016,09,29,01,02,6.50
2016,09,29,01,03,6.50
2016,09,29,01,04,6.50
2016,09,29,01,05,6.50
2016,09,29,01,06,6.50
2016,09,29,01,07,6.40
2016,09,29,01,08,6.40
2016,09,29,01,09,6.40
2016,09,29,01,10,6.40
2016,09,29,01,11,6.30
2016,09,29,01,12,6.30
2016,09,29,01,13,6.30
2016,09,29,01,14,6.30
2016,09,29,01,15,6.30
2016,09,29,01,16,6.30
2016,09,29,01,17,6.30
2016,09,29,01,18,6.30
2016,09,29,01,19,6.30
2016,09,29,01,20,6.30
2016,09,29,01,21,6.30
2016,09,29,01,22,6.30
2016,09,29,01,23,6.30
2016,09,29,01,24,6.30
2016,09,29,01,25,6.30
2016,09,29,01,26,6.30
2016,09,29,01,27,6.30
2016,09,29,01,28,6.30
2016,09,29,01,29,6.30
2016,09,29,01,30,6.30
2016,09,29,01,31,6.30
2016,09,29,01,32,6.30
2016,09,29,01,33,6.30
2016,09,29,01,34,6.20
2016,09,29,01,35,6.20
2016,09,29,01,36,6.20
2016,09,29,01,37,6.20
2016,09,29,01,38,6.20
2016,09,29,01,39,6.20
2016,09,29,01,40,6.20
2016,09,29,01,41,6.30
2016,09,29,01,42,6.30
2016,09,29,01,43,6.30
2016,09,29,01,44,6.30
2016,09,29,01,45,6.30
2016,09,29,01,46,6.30
2016,09,29,01,47,6.30
2016,09,29,01,48,6.20
2016,09,29,01,49,6.20
2016,09,29,01,50,6.10
2016,09,29,01,51,6.10
2016,09,29,01,52,6.10
2016,09,29,01,53,6.10
2016,09,29,01,54,6.10
2016,09,29,01,55,6.00
2016,09,29,01,56,6.00
2016,09,29,01,57,6.00
2016,09,29,01,58,5.90
2016,09,29,01,59,5.90
2016,09,29,02,00,5.90
2016,09,29,02,01,5.90
2016,09,29,02,02,5.90
2016,09,29,02,03,5.80
2016,09,29,02,04,5.80
2016,09,29,02,05,5.80
2016,09,29,02,06,5.80
2016,09,29,02,07,5.80
2016,09,29,02,08,5.80
2016,09,29,02,09,5.90
2016,09,29,02,10,5.90
2016,09,29,02,11,5.90
2016,09,29,02,12,5.90
2016,09,29,02,13,6.00
2016,09,29,02,14,6.00
2016,09,29,02,15,5.90
2016,09,29,02,16,5.90
2016,09,29,02,17,5.90
2016,09,29,02,18,5.90
2016,09,29,02,19,5.80
2016,09,29,02,20,5.80
2016,09,29,02,21,5.80
2016,09,29,02,22,5.80
2016,09,29,02,23,5.80
2016,09,29,02,24,5.80
2016,09,29,02,25,5.80
2016,09,29,02,26,5.70
2016,09,29,02,27,5.80
2016,09,29,02,28,5.80
2016,09,29,02,29,5.80
2016,09,29,02,30,5.80
2016,09,29,02,31,5.80
2016,09,29,02,32,5.80
2016,09,29,02,33,5.80
2016,09,29,02,34,5.70
2016,09,29,02,35,5.70
2016,09,29,02,36,5.70
2016,09,29,02,37,5.70
2016,09,29,02,38,5.70
2016,09,29,02,39,5.70
2016,09,29,02,40,5.70
2016,09,29,02,41,5.60
2016,09,29,02,42,5.60
2016,09,29,02,43,5.60
2016,09,29,02,44,5.60
2016,09,29,02,45,5.60
2016,09,29,02,46,5.60
2016,09,29,02,47,5.60
2016,09,29,02,48,5.60
2016,09,29,02,49,5.60
2016,09,29,02,50,5.60
2016,09,29,02,51,5.60
2016,09,29,02,52,5.60
2016,09,29,02,53,5.60
2016,09,29,02,54,5.60
2016,09,29,02,55,5.60
2016,09,29,02,56,5.60
2016,09,29,02,57,5.60
2016,09,29,02,58,5.60
2016,09,29,02,59,5.60
2016,09,29,03,00,5.60
2016,09,29,03,01,5.60
2016,09,29,03,02,5.60
2016,09,29,03,03,5.60
2016,09,29,03,04,5.50
2016,09,29,03,05,5.50
2016,09,29,03,06,5.50
2016,09,29,03,07,5.60
2016,09,29,03,08,5.60
2016,09,29,03,09,5.70
2016,09,29,03,10,5.70
2016,09,29,03,11,5.70
2016,09,29,03,12,5.70
2016,09,29,03,13,5.70
2016,09,29,03,14,5.70
2016,09,29,03,15,5.70
2016,09,29,03,16,5.70
2016,09,29,03,17,5.60
2016,09,29,03,18,5.60
2016,09,29,03,19,5.60
2016,09,29,03,20,5.60
2016,09,29,03,21,5.50
2016,09,29,03,22,5.50
2016,09,29,03,23,5.40
2016,09,29,03,24,5.40
2016,09,29,03,25,5.40
2016,09,29,03,26,5.40
2016,09,29,03,27,5.40
2016,09,29,03,28,5.40
2016,09,29,03,29,5.40
2016,09,29,03,30,5.40
2016,09,29,03,31,5.50
2016,09,29,03,32,5.50
2016,09,29,03,33,5.60
2016,09,29,03,34,5.60
2016,09,29,03,35,5.70
2016,09,29,03,36,5.70
2016,09,29,03,37,5.70
2016,09,29,03,38,5.70
2016,09,29,03,39,5.80
2016,09,29,03,40,5.80
2016,09,29,03,41,5.80
2016,09,29,03,42,5.80
2016,09,29,03,43,5.70
2016,09,29,03,44,5.80
2016,09,29,03,45,5.80
2016,09,29,03,46,5.90
2016,09,29,03,47,5.90
2016,09,29,03,48,5.90
2016,09,29,03,49,6.00
2016,09,29,03,50,6.00
2016,09,29,03,51,6.10
2016,09,29,03,52,6.10
2016,09,29,03,53,6.10
2016,09,29,03,54,6.10
2016,09,29,03,55,6.10
2016,09,29,03,56,6.10
2016,09,29,03,57,6.00
2016,09,29,03,58,6.00
2016,09,29,03,59,5.90
2016,09,29,04,00,5.90
2016,09,29,04,01,5.90
2016,09,29,04,02,5.90
2016,09,29,04,03,5.90
2016,09,29,04,04,5.90
2016,09,29,04,05,5.90
2016,09,29,04,06,5.90
2016,09,29,04,07,5.90
2016,09,29,04,08,5.90
2016,09,29,04,09,5.90
2016,09,29,04,10,5.80
2016,09,29,04,11,5.80
2016,09,29,04,12,5.80
2016,09,29,04,13,5.80
2016,09,29,04,14,5.80
2016,09,29,04,15,5.80
2016,09,29,04,16,5.80
2016,09,29,04,17,5.70
2016,09,29,04,18,5.70
2016,09,29,04,19,5.70
2016,09,29,04,20,5.70
2016,09,29,04,21,5.60
2016,09,29,04,22,5.60
2016,09,29,04,23,5.60
2016,09,29,04,24,5.50
2016,09,29,04,25,5.50
2016,09,29,04,26,5.50
2016,09,29,04,27,5.50
2016,09,29,04,28,5.50
2016,09,29,04,29,5.50
2016,09,29,04,30,5.60
2016,09,29,04,31,5.60
2016,09,29,04,32,5.70
2016,09,29,04,33,5.70
2016,09,29,04,34,5.70
2016,09,29,04,35,5.70
2016,09,29,04,36,5.60
2016,09,29,04,37,5.60
2016,09,29,04,38,5.50
2016,09,29,04,39,5.50
2016,09,29,04,40,5.50
2016,09,29,04,41,5.40
2016,09,29,04,42,5.40
2016,09,29,04,43,5.40
2016,09,29,04,44,5.40
2016,09,29,04,45,5.40
2016,09,29,04,46,5.30
2016,09,29,04,47,5.30
2016,09,29,04,48,5.30
2016,09,29,04,49,5.30
2016,09,29,04,50,5.30
2016,09,29,04,51,5.30
2016,09,29,04,52,5.20
2016,09,29,04,53,5.20
2016,09,29,04,54,5.20
2016,09,29,04,55,5.20
2016,09,29,04,56,5.20
2016,09,29,04,57,5.20
2016,09,29,04,58,5.20
2016,09,29,04,59,5.20
2016,09,29,05,00,5.20
2016,09,29,05,01,5.20
2016,09,29,05,02,5.20
2016,09,29,05,03,5.20
2016,09,29,05,04,5.10
2016,09,29,05,05,5.10
2016,09,29,05,06,5.10
2016,09,29,05,07,5.10
2016,09,29,05,08,5.10
2016,09,29,05,09,5.10
2016,09,29,05,10,5.10
2016,09,29,05,11,5.10
2016,09,29,05,12,5.10
2016,09,29,05,13,5.10
2016,09,29,05,14,5.00
2016,09,29,05,15,5.00
2016,09,29,05,16,5.00
2016,09,29,05,17,4.90
2016,09,29,05,18,4.90
2016,09,29,05,19,4.90
2016,09,29,05,20,4.90
2016,09,29,05,21,4.90
2016,09,29,05,22,4.90
2016,09,29,05,23,4.90
2016,09,29,05,24,4.90
2016,09,29,05,25,4.90
2016,09,29,05,26,4.90
2016,09,29,05,27,4.90
2016,09,29,05,28,4.90
2016,09,29,05,29,4.90
2016,09,29,05,30,4.90
2016,09,29,05,31,4.90
2016,09,29,05,32,4.90
2016,09,29,05,33,4.90
2016,09,29,05,34,4.90
2016,09,29,05,35,4.90
2016,09,29,05,36,4.90
2016,09,29,05,37,4.90
2016,09,29,05,38,4.90
2016,09,29,05,39,4.90
2016,09,29,05,40,4.90
2016,09,29,05,41,4.90
2016,09,29,05,42,4.80
2016,09,29,05,43,4.80
2016,09,29,05,44,4.80
2016,09,29,05,45,4.80
2016,09,29,05,46,4.80
2016,09,29,05,47,4.80
2016,09,29,05,48,4.80
2016,09,29,05,49,4.80
2016,09,29,05,50,4.80
2016,09,29,05,51,4.80
2016,09,29,05,52,4.80
2016,09,29,05,53,4.80
2016,09,29,05,54,4.80
2016,09,29,05,55,4.80
2016,09,29,05,56,4.80
2016,09,29,05,57,4.80
2016,09,29,05,58,4.90
2016,09,29,05,59,4.90
2016,09,29,06,00,4.90
2016,09,29,06,01,4.90
2016,09,29,06,02,4.90
2016,09,29,06,03,4.90
2016,09,29,06,04,4.90
2016,09,29,06,05,4.90
2016,09,29,06,06,4.80
2016,09,29,06,07,4.80
2016,09,29,06,08,4.80
2016,09,29,06,09,4.80
2016,09,29,06,10,4.80
2016,09,29,06,11,4.80
2016,09,29,06,12,4.70
2016,09,29,06,13,4.70
2016,09,29,06,14,4.70
2016,09,29,06,15,4.70
2016,09,29,06,16,4.70
2016,09,29,06,17,4.70
2016,09,29,06,18,4.70
2016,09,29,06,19,4.60
2016,09,29,06,20,4.60
2016,09,29,06,21,4.60
2016,09,29,06,22,4.60
2016,09,29,06,23,4.60
2016,09,29,06,24,4.60
2016,09,29,06,25,4.60
2016,09,29,06,26,4.60
2016,09,29,06,27,4.60
2016,09,29,06,28,4.60
2016,09,29,06,29,4.50
2016,09,29,06,30,4.50
2016,09,29,06,31,4.50
2016,09,29,06,32,4.50
2016,09,29,06,33,4.50
2016,09,29,06,34,4.60
2016,09,29,06,35,4.60
2016,09,29,06,36,4.50
2016,09,29,06,37,4.50
2016,09,29,06,38,4.50
2016,09,29,06,39,4.50
2016,09,29,06,40,4.50
2016,09,29,06,41,4.50
2016,09,29,06,42,4.50
2016,09,29,06,43,4.50
2016,09,29,06,44,4.50
2016,09,29,06,45,4.50
2016,09,29,06,46,4.60
2016,09,29,06,47,4.60
2016,09,29,06,48,4.60
2016,09,29,06,49,4.70
2016,09,29,06,50,4.70
2016,09,29,06,51,4.70
2016,09,29,06,52,4.70
2016,09,29,06,53,4.70
2016,09,29,06,54,4.70
2016,09,29,06,55,4.70
2016,09,29,06,56,4.70
2016,09,29,06,57,4.70
2016,09,29,06,58,4.60
2016,09,29,06,59,4.60
2016,09,29,07,00,4.50
2016,09,29,07,01,4.50
2016,09,29,07,02,4.50
2016,09,29,07,03,4.50
2016,09,29,07,04,4.40
2016,09,29,07,05,4.40
2016,09,29,07,06,4.50
2016,09,29,07,07,4.50
2016,09,29,07,08,4.60
2016,09,29,07,09,4.60
2016,09,29,07,10,4.70
2016,09,29,07,11,4.80
2016,09,29,07,12,4.80
2016,09,29,07,13,4.80
2016,09,29,07,14,4.70
2016,09,29,07,15,4.70
2016,09,29,07,16,4.70
2016,09,29,07,17,4.70
2016,09,29,07,18,4.60
2016,09,29,07,19,4.60
2016,09,29,07,20,4.60
2016,09,29,07,21,4.60
2016,09,29,07,22,4.60
2016,09,29,07,23,4.60
2016,09,29,07,24,4.60
2016,09,29,07,25,4.60
2016,09,29,07,26,4.60
2016,09,29,07,27,4.60
2016,09,29,07,28,4.60
2016,09,29,07,29,4.60
2016,09,29,07,30,4.60
2016,09,29,07,31,4.60
2016,09,29,07,32,4.60
2016,09,29,07,33,4.50
2016,09,29,07,34,4.50
2016,09,29,07,35,4.50
2016,09,29,07,36,4.50
2016,09,29,07,37,4.50
2016,09,29,07,38,4.50
2016,09,29,07,39,4.50
2016,09,29,07,40,4.50
2016,09,29,07,41,4.50
2016,09,29,07,42,4.50
2016,09,29,07,43,4.40
2016,09,29,07,44,4.40
2016,09,29,07,45,4.40
2016,09,29,07,46,4.40
2016,09,29,07,47,4.40
2016,09,29,07,48,4.40
2016,09,29,07,49,4.40
2016,09,29,07,50,4.50
2016,09,29,07,51,4.50
2016,09,29,07,52,4.50
2016,09,29,07,53,4.60
2016,09,29,07,54,4.60
2016,09,29,07,55,4.60
2016,09,29,07,56,4.60
2016,09,29,07,57,4.60
2016,09,29,07,58,4.60
2016,09,29,07,59,4.60
2016,09,29,08,00,4.60
2016,09,29,08,01,4.60
2016,09,29,08,02,4.60
2016,09,29,08,03,4.60
2016,09,29,08,04,4.60
2016,09,29,08,05,4.60
2016,09,29,08,06,4.60
2016,09,29,08,07,4.60
2016,09,29,08,08,4.60
2016,09,29,08,09,4.50
2016,09,29,08,10,4.50
2016,09,29,08,11,4.60
2016,09,29,08,12,4.60
2016,09,29,08,13,4.70
2016,09,29,08,14,4.70
2016,09,29,08,15,4.70
2016,09,29,08,16,4.70
2016,09,29,08,17,4.70
2016,09,29,08,18,4.70
2016,09,29,08,19,4.70
2016,09,29,08,20,4.70
2016,09,29,08,21,4.70
2016,09,29,08,22,4.70
2016,09,29,08,23,4.70
2016,09,29,08,24,4.70
2016,09,29,08,25,4.70
2016,09,29,08,26,4.70
2016,09,29,08,27,4.70
2016,09,29,08,28,4.70
2016,09,29,08,29,4.70
2016,09,29,08,30,4.70
2016,09,29,08,31,4.70
2016,09,29,08,32,4.70
2016,09,29,08,33,4.70
2016,09,29,08,34,4.70
2016,09,29,08,35,4.70
2016,09,29,08,36,4.80
2016,09,29,08,37,4.80
2016,09,29,08,38,4.80
2016,09,29,08,39,4.80
2016,09,29,08,40,4.80
2016,09,29,08,41,4.80
2016,09,29,08,42,4.70
2016,09,29,08,43,4.80
2016,09,29,08,44,4.80
2016,09,29,08,45,4.80
2016,09,29,08,46,4.80
2016,09,29,08,47,4.80
2016,09,29,08,48,4.80
2016,09,29,08,49,4.80
2016,09,29,08,50,4.80
2016,09,29,08,51,4.80
2016,09,29,08,52,4.80
2016,09,29,08,53,4.80
2016,09,29,08,54,4.80
2016,09,29,08,55,4.80
2016,09,29,08,56,4.80
2016,09,29,08,57,4.80
2016,09,29,08,58,4.80
2016,09,29,08,59,4.80
2016,09,29,09,00,4.80
2016,09,29,09,01,4.80
2016,09,29,09,02,4.80
2016,09,29,09,03,4.80
2016,09,29,09,04,4.80
2016,09,29,09,05,4.80
2016,09,29,09,06,4.80
2016,09,29,09,07,4.80
2016,09,29,09,08,4.80
2016,09,29,09,09,4.80
2016,09,29,09,10,4.80
2016,09,29,09,11,4.80
2016,09,29,09,12,4.80
2016,09,29,09,13,4.80
2016,09,29,09,14,4.80
2016,09,29,09,15,4.80
2016,09,29,09,16,4.80
2016,09,29,09,17,4.80
2016,09,29,09,18,4.90
2016,09,29,09,19,4.90
2016,09,29,09,20,4.90
2016,09,29,09,21,4.90
2016,09,29,09,22,4.90
2016,09,29,09,23,4.90
2016,09,29,09,24,4.90
2016,09,29,09,25,4.90
2016,09,29,09,26,4.90
2016,09,29,09,27,4.90
2016,09,29,09,28,4.90
2016,09,29,09,29,4.90
2016,09,29,09,30,4.90
2016,09,29,09,31,4.90
2016,09,29,09,32,4.90
2016,09,29,09,33,4.90
2016,09,29,09,34,4.90
2016,09,29,09,35,4.90
2016,09,29,09,36,4.90
2016,09,29,09,37,5.00
2016,09,29,09,38,5.00
2016,09,29,09,39,5.00
2016,09,29,09,40,5.00
2016,09,29,09,41,5.00
2016,09,29,09,42,5.00
2016,09,29,09,43,5.00
2016,09,29,09,44,5.10
2016,09,29,09,45,5.10
2016,09,29,09,46,5.10
2016,09,29,09,47,5.10
2016,09,29,09,48,5.10
2016,09,29,09,49,5.00
2016,09,29,09,50,5.00
2016,09,29,09,51,5.00
2016,09,29,09,52,5.00
2016,09,29,09,53,5.00
2016,09,29,09,54,5.00
2016,09,29,09,55,5.00
2016,09,29,09,56,5.00
2016,09,29,09,57,5.00
2016,09,29,09,58,5.00
2016,09,29,09,59,5.00
2016,09,29,10,00,5.00
2016,09,29,10,01,5.10
2016,09,29,10,02,5.10
2016,09,29,10,03,5.10
2016,09,29,10,04,5.10
2016,09,29,10,05,5.10
2016,09,29,10,06,5.10
2016,09,29,10,07,5.20
2016,09,29,10,08,5.20
2016,09,29,10,09,5.20
2016,09,29,10,10,5.20
2016,09,29,10,11,5.20
2016,09,29,10,12,5.30
2016,09,29,10,13,5.30
2016,09,29,10,14,5.40
2016,09,29,10,15,5.60
2016,09,29,10,16,5.70
2016,09,29,10,17,5.80
2016,09,29,10,18,5.80
2016,09,29,10,19,5.90
2016,09,29,10,20,6.00
2016,09,29,10,21,6.10
2016,09,29,10,22,6.20
2016,09,29,10,23,6.30
2016,09,29,10,24,6.40
2016,09,29,10,25,6.50
2016,09,29,10,26,6.60
2016,09,29,10,27,6.70
2016,09,29,10,28,6.70
2016,09,29,10,29,6.80
2016,09,29,10,30,6.80
2016,09,29,10,31,6.80
2016,09,29,10,32,6.90
2016,09,29,10,33,6.90
2016,09,29,10,34,6.90
2016,09,29,10,35,7.00
2016,09,29,10,36,7.00
2016,09,29,10,37,7.10
2016,09,29,10,38,7.10
2016,09,29,10,39,7.10
2016,09,29,10,40,7.10
2016,09,29,10,41,7.10
2016,09,29,10,42,7.10
2016,09,29,10,43,7.20
2016,09,29,10,44,7.20
2016,09,29,10,45,7.30
2016,09,29,10,46,7.40
2016,09,29,10,47,7.50
2016,09,29,10,48,7.60
2016,09,29,10,49,7.70
2016,09,29,10,50,7.90
2016,09,29,10,51,8.00
2016,09,29,10,52,8.10
2016,09,29,10,53,8.20
2016,09,29,10,54,8.40
2016,09,29,10,55,8.50
2016,09,29,10,56,8.70
2016,09,29,10,57,8.80
2016,09,29,10,58,8.90
2016,09,29,10,59,9.00
2016,09,29,11,00,9.10
2016,09,29,11,01,9.20
2016,09,29,11,02,9.30
2016,09,29,11,03,9.40
2016,09,29,11,04,9.40
2016,09,29,11,05,9.50
2016,09,29,11,06,9.50
2016,09,29,11,07,9.50
2016,09,29,11,08,9.60
2016,09,29,11,09,9.60
2016,09,29,11,10,9.70
2016,09,29,11,11,9.70
2016,09,29,11,12,9.80
2016,09,29,11,13,9.80
2016,09,29,11,14,9.90
2016,09,29,11,15,10.00
2016,09,29,11,16,10.10
2016,09,29,11,17,10.20
2016,09,29,11,18,10.30
2016,09,29,11,19,10.30
2016,09,29,11,20,10.50
2016,09,29,11,21,10.50
2016,09,29,11,22,10.60
2016,09,29,11,23,10.70
2016,09,29,11,24,10.80
2016,09,29,11,25,10.90
2016,09,29,11,26,10.90
2016,09,29,11,27,11.00
2016,09,29,11,28,11.00
2016,09,29,11,29,11.10
2016,09,29,11,30,11.30
2016,09,29,11,31,11.50
2016,09,29,11,32,11.60
2016,09,29,11,33,11.70
2016,09,29,11,34,11.80
2016,09,29,11,35,11.90
2016,09,29,11,36,12.00
2016,09,29,11,37,12.10
2016,09,29,11,38,12.10
2016,09,29,11,39,12.10
2016,09,29,11,40,12.10
2016,09,29,11,41,12.20
2016,09,29,11,42,12.20
2016,09,29,11,43,12.30
2016,09,29,11,44,12.40
2016,09,29,11,45,12.40
2016,09,29,11,46,12.50
2016,09,29,11,47,12.60
2016,09,29,11,48,12.60
2016,09,29,11,49,12.80
2016,09,29,11,50,12.90
2016,09,29,11,51,13.00
2016,09,29,11,52,13.10
2016,09,29,11,53,13.20
2016,09,29,11,54,13.20
2016,09,29,11,55,13.20
2016,09,29,11,56,13.20
2016,09,29,11,57,13.30
2016,09,29,11,58,13.30
2016,09,29,11,59,13.40
2016,09,29,12,00,13.50
2016,09,29,12,01,13.60
2016,09,29,12,02,13.60
2016,09,29,12,03,13.70
2016,09,29,12,04,13.80
2016,09,29,12,05,13.90
2016,09,29,12,06,14.00
2016,09,29,12,07,14.20
2016,09,29,12,08,14.30
2016,09,29,12,09,14.30
2016,09,29,12,10,14.40
2016,09,29,12,11,14.50
2016,09,29,12,12,14.60
2016,09,29,12,13,14.70
2016,09,29,12,14,14.80
2016,09,29,12,15,14.80
2016,09,29,12,16,14.90
2016,09,29,12,17,14.90
2016,09,29,12,18,15.00
2016,09,29,12,19,15.10
2016,09,29,12,20,15.10
2016,09,29,12,21,15.20
2016,09,29,12,22,15.30
2016,09,29,12,23,15.40
2016,09,29,12,24,15.50
2016,09,29,12,25,15.60
2016,09,29,12,26,15.70
2016,09,29,12,27,15.80
2016,09,29,12,28,15.80
2016,09,29,12,29,15.90
2016,09,29,12,30,16.00
2016,09,29,12,31,16.00
2016,09,29,12,32,16.00
2016,09,29,12,33,15.90
2016,09,29,12,34,15.90
2016,09,29,12,35,15.90
2016,09,29,12,36,15.90
2016,09,29,12,37,15.90
2016,09,29,12,38,15.90
2016,09,29,12,39,15.90
2016,09,29,12,40,15.90
2016,09,29,12,41,15.90
2016,09,29,12,42,16.00
2016,09,29,12,43,16.00
2016,09,29,12,44,16.00
2016,09,29,12,45,16.10
2016,09,29,12,46,16.20
2016,09,29,12,47,16.20
2016,09,29,12,48,16.30
2016,09,29,12,49,16.30
2016,09,29,12,50,16.40
2016,09,29,12,51,16.50
2016,09,29,12,52,16.50
2016,09,29,12,53,16.60
2016,09,29,12,54,16.60
2016,09,29,12,55,16.70
2016,09,29,12,56,16.60
2016,09,29,12,57,16.60
2016,09,29,12,58,16.60
2016,09,29,12,59,16.60
2016,09,29,13,00,16.60
2016,09,29,13,01,16.60
2016,09,29,13,02,16.70
2016,09,29,13,03,16.70
2016,09,29,13,04,16.80
2016,09,29,13,05,16.90
2016,09,29,13,06,16.90
2016,09,29,13,07,17.00
2016,09,29,13,08,17.00
2016,09,29,13,09,17.10
2016,09,29,13,10,17.10
2016,09,29,13,11,17.10
2016,09,29,13,12,17.20
2016,09,29,13,13,17.20
2016,09,29,13,14,17.20
2016,09,29,13,15,17.20
2016,09,29,13,16,17.20
2016,09,29,13,17,17.20
2016,09,29,13,18,17.30
2016,09,29,13,19,17.30
2016,09,29,13,20,17.30
2016,09,29,13,21,17.30
2016,09,29,13,22,17.30
2016,09,29,13,23,17.30
2016,09,29,13,24,17.30
2016,09,29,13,25,17.30
2016,09,29,13,26,17.40
2016,09,29,13,27,17.40
2016,09,29,13,28,17.40
2016,09,29,13,29,17.40
2016,09,29,13,30,17.50
2016,09,29,13,31,17.60
2016,09,29,13,32,17.60
2016,09,29,13,33,17.60
2016,09,29,13,34,17.60
2016,09,29,13,35,17.50
2016,09,29,13,36,17.50
2016,09,29,13,37,17.50
2016,09,29,13,38,17.50
2016,09,29,13,39,17.50
2016,09,29,13,40,17.60
2016,09,29,13,41,17.60
2016,09,29,13,42,17.60
2016,09,29,13,43,17.60
2016,09,29,13,44,17.60
2016,09,29,13,45,17.60
2016,09,29,13,46,17.60
2016,09,29,13,47,17.60
2016,09,29,13,48,17.60
2016,09,29,13,49,17.60
2016,09,29,13,50,17.60
2016,09,29,13,51,17.60
2016,09,29,13,52,17.70
2016,09,29,13,53,17.70
2016,09,29,13,54,17.70
2016,09,29,13,55,17.80
2016,09,29,13,56,17.80
2016,09,29,13,57,17.80
2016,09,29,13,58,17.80
2016,09,29,13,59,17.80
2016,09,29,14,00,17.80
2016,09,29,14,01,17.80
2016,09,29,14,02,17.80
2016,09,29,14,03,17.70
2016,09,29,14,04,17.80
2016,09,29,14,05,17.80
2016,09,29,14,06,17.80
2016,09,29,14,07,17.80
2016,09,29,14,08,17.70
2016,09,29,14,09,17.70
2016,09,29,14,10,17.80
2016,09,29,14,11,17.80
2016,09,29,14,12,17.80
2016,09,29,14,13,17.80
2016,09,29,14,14,17.90
2016,09,29,14,15,18.00
2016,09,29,14,16,18.10
2016,09,29,14,17,18.10
2016,09,29,14,18,18.10
2016,09,29,14,19,18.00
2016,09,29,14,20,18.00
2016,09,29,14,21,18.00
2016,09,29,14,22,18.00
2016,09,29,14,23,18.00
2016,09,29,14,24,18.00
2016,09,29,14,25,18.00
2016,09,29,14,26,18.10
2016,09,29,14,27,18.10
2016,09,29,14,28,18.10
2016,09,29,14,29,18.10
2016,09,29,14,30,18.10
2016,09,29,14,31,18.10
2016,09,29,14,32,18.10
2016,09,29,14,33,18.10
2016,09,29,14,34,18.10
2016,09,29,14,35,18.10
2016,09,29,14,36,18.10
2016,09,29,14,37,18.10
2016,09,29,14,38,18.10
2016,09,29,14,39,18.00
2016,09,29,14,40,18.00
2016,09,29,14,41,18.00
2016,09,29,14,42,17.90
2016,09,29,14,43,17.90
2016,09,29,14,44,17.90
2016,09,29,14,45,17.90
2016,09,29,14,46,18.00
2016,09,29,14,47,18.00
2016,09,29,14,48,18.00
2016,09,29,14,49,18.00
2016,09,29,14,50,18.00
2016,09,29,14,51,18.00
2016,09,29,14,52,17.90
2016,09,29,14,53,17.90
2016,09,29,14,54,18.00
2016,09,29,14,55,18.00
2016,09,29,14,56,18.00
2016,09,29,14,57,18.00
2016,09,29,14,58,18.00
2016,09,29,14,59,18.00
2016,09,29,15,00,18.00
2016,09,29,15,01,18.00
2016,09,29,15,02,18.00
2016,09,29,15,03,18.00
2016,09,29,15,04,17.90
2016,09,29,15,05,17.90
2016,09,29,15,06,17.90
2016,09,29,15,07,17.90
2016,09,29,15,08,17.90
2016,09,29,15,09,17.80
2016,09,29,15,10,17.80
2016,09,29,15,11,17.80
2016,09,29,15,12,17.80
2016,09,29,15,13,17.80
2016,09,29,15,14,17.80
2016,09,29,15,15,17.80
2016,09,29,15,16,17.80
2016,09,29,15,17,17.80
2016,09,29,15,18,17.80
2016,09,29,15,19,17.80
2016,09,29,15,20,17.80
2016,09,29,15,21,17.80
2016,09,29,15,22,17.80
2016,09,29,15,23,17.80
2016,09,29,15,24,17.80
2016,09,29,15,25,17.80
2016,09,29,15,26,17.70
2016,09,29,15,27,17.70
2016,09,29,15,28,17.70
2016,09,29,15,29,17.70
2016,09,29,15,30,17.70
2016,09,29,15,31,17.70
2016,09,29,15,32,17.70
2016,09,29,15,33,17.80
2016,09,29,15,34,17.80
2016,09,29,15,35,17.80
2016,09,29,15,36,17.80
2016,09,29,15,37,17.80
2016,09,29,15,38,17.70
2016,09,29,15,39,17.60
2016,09,29,15,40,17.60
2016,09,29,15,41,17.60
2016,09,29,15,42,17.60
2016,09,29,15,43,17.60
2016,09,29,15,44,17.60
2016,09,29,15,45,17.60
2016,09,29,15,46,17.60
2016,09,29,15,47,17.50
2016,09,29,15,48,17.50
2016,09,29,15,49,17.50
2016,09,29,15,50,17.50
2016,09,29,15,51,17.50
2016,09,29,15,52,17.60
2016,09,29,15,53,17.60
2016,09,29,15,54,17.60
2016,09,29,15,55,17.50
2016,09,29,15,56,17.40
2016,09,29,15,57,17.40
2016,09,29,15,58,17.40
2016,09,29,15,59,17.30
2016,09,29,16,00,17.40
2016,09,29,16,01,17.40
2016,09,29,16,02,17.40
2016,09,29,16,03,17.30
2016,09,29,16,04,17.30
2016,09,29,16,05,17.30
2016,09,29,16,06,17.30
2016,09,29,16,07,17.30
2016,09,29,16,08,17.30
2016,09,29,16,09,17.30
2016,09,29,16,10,17.30
2016,09,29,16,11,17.30
2016,09,29,16,12,17.30
2016,09,29,16,13,17.30
2016,09,29,16,14,17.30
2016,09,29,16,15,17.30
2016,09,29,16,16,17.30
2016,09,29,16,17,17.30
2016,09,29,16,18,17.20
2016,09,29,16,19,17.20
2016,09,29,16,20,17.20
2016,09,29,16,21,17.20
2016,09,29,16,22,17.20
2016,09,29,16,23,17.20
2016,09,29,16,24,17.20
2016,09,29,16,25,17.20
2016,09,29,16,26,17.30
2016,09,29,16,27,17.30
2016,09,29,16,28,17.30
2016,09,29,16,29,17.20
2016,09,29,16,30,17.20
2016,09,29,16,31,17.20
2016,09,29,16,32,17.20
2016,09,29,16,33,17.20
2016,09,29,16,34,17.20
2016,09,29,16,35,17.10
2016,09,29,16,36,17.10
2016,09,29,16,37,17.10
2016,09,29,16,38,17.10
2016,09,29,16,39,17.10
2016,09,29,16,40,17.10
2016,09,29,16,41,17.10
2016,09,29,16,42,17.10
2016,09,29,16,43,17.10
2016,09,29,16,44,17.10
2016,09,29,16,45,17.10
2016,09,29,16,46,17.10
2016,09,29,16,47,17.10
2016,09,29,16,48,17.10
2016,09,29,16,49,17.10
2016,09,29,16,50,17.10
2016,09,29,16,51,17.00
2016,09,29,16,52,17.00
2016,09,29,16,53,17.00
2016,09,29,16,54,17.00
2016,09,29,16,55,16.90
2016,09,29,16,56,16.90
2016,09,29,16,57,16.90
2016,09,29,16,58,16.90
2016,09,29,16,59,16.90
2016,09,29,17,00,16.90
2016,09,29,17,01,16.90
2016,09,29,17,02,16.90
2016,09,29,17,03,16.90
2016,09,29,17,04,16.90
2016,09,29,17,05,16.90
2016,09,29,17,06,16.90
2016,09,29,17,07,16.80
2016,09,29,17,08,16.80
2016,09,29,17,09,16.80
2016,09,29,17,10,16.80
2016,09,29,17,11,16.70
2016,09,29,17,12,16.70
2016,09,29,17,13,16.70
2016,09,29,17,14,16.70
2016,09,29,17,15,16.70
2016,09,29,17,16,16.60
2016,09,29,17,17,16.60
2016,09,29,17,18,16.50
2016,09,29,17,19,16.50
2016,09,29,17,20,16.40
2016,09,29,17,21,16.40
2016,09,29,17,22,16.40
2016,09,29,17,23,16.30
2016,09,29,17,24,16.30
2016,09,29,17,25,16.30
2016,09,29,17,26,16.20
2016,09,29,17,27,16.20
2016,09,29,17,28,16.20
2016,09,29,17,29,16.20
2016,09,29,17,30,16.20
2016,09,29,17,31,16.20
2016,09,29,17,32,16.10
2016,09,29,17,33,16.10
2016,09,29,17,34,16.00
2016,09,29,17,35,16.00
2016,09,29,17,36,15.90
2016,09,29,17,37,15.90
2016,09,29,17,38,15.90
2016,09,29,17,39,15.80
2016,09,29,17,40,15.80
2016,09,29,17,41,15.70
2016,09,29,17,42,15.70
2016,09,29,17,43,15.60
2016,09,29,17,44,15.50
2016,09,29,17,45,15.50
2016,09,29,17,46,15.40
2016,09,29,17,47,15.40
2016,09,29,17,48,15.30